FW8116 Weather Reports


Display with metric or nautical units.
time (UTC)temp
F
wind
direction
speed
MPH
gust
MPH
rain 1hr
in
rain 24hr
in
rain mn
in
humidity
%
barometer
mb
20211128095009 35 215 0.0 1.0 0.00 0.00 0.00 72 1013.6
20211128094513 35 0 0.0 0.0 0.00 0.00 0.00 71 1013.5
20211128094019 35 0 0.0 0.0 0.00 0.00 0.00 73 1013.5
20211128093512 35 0 0.0 0.0 0.00 0.00 0.00 73 1013.5
20211128093028 35 0 0.0 0.0 0.00 0.00 0.00 70 1013.5
20211128092517 35 0 0.0 0.0 0.00 0.00 0.00 70 1013.6
20211128092012 36 0 0.0 1.0 0.00 0.00 0.00 72 1013.5
20211128091534 36 0 0.0 1.0 0.00 0.00 0.00 66 1013.6
20211128091023 36 0 0.0 1.0 0.00 0.00 0.00 66 1013.5
20211128090513 36 0 0.0 1.0 0.00 0.00 0.00 65 1013.6
20211128090020 37 215 0.0 2.0 0.00 0.00 0.00 65 1013.6
20211128085515 37 0 0.0 2.0 0.00 0.00 0.00 64 1013.7
20211128085018 37 0 0.0 4.0 0.00 0.00 0.00 64 1013.7
20211128084514 37 0 0.0 4.0 0.00 0.00 0.00 63 1013.6
20211128084010 38 200 1.0 4.0 0.00 0.00 0.00 62 1013.4
20211128083514 38 186 1.0 5.0 0.00 0.00 0.00 62 1013.5
20211128083017 38 155 2.0 5.0 0.00 0.00 0.00 61 1013.5
20211128082530 38 161 2.0 5.0 0.00 0.00 0.00 61 1013.5
20211128082015 38 190 2.0 4.0 0.00 0.00 0.00 61 1013.6
20211128081524 38 171 1.0 5.0 0.00 0.00 0.00 61 1013.7
20211128081012 38 181 1.0 5.0 0.00 0.00 0.00 61 1013.7
20211128080513 38 192 1.0 5.0 0.00 0.00 0.00 60 1013.7
20211128080015 38 169 2.0 5.0 0.00 0.00 0.00 60 1013.8
20211128075512 38 182 1.0 4.0 0.00 0.00 0.00 60 1013.8
20211128075033 38 175 1.0 4.0 0.00 0.00 0.00 60 1013.8
20211128074527 38 182 1.0 4.0 0.00 0.00 0.00 60 1013.9
20211128074012 38 0 1.0 4.0 0.00 0.00 0.00 60 1013.9
20211128073512 38 213 1.0 4.0 0.00 0.00 0.00 60 1014.0
20211128073016 38 0 1.0 4.0 0.00 0.00 0.00 59 1014.0
20211128072513 38 186 0.0 3.0 0.00 0.00 0.00 60 1014.1
20211128072036 38 0 0.0 5.0 0.00 0.00 0.00 59 1014.1
20211128071605 39 0 2.0 5.0 0.00 0.00 0.00 58 1014.1
20211128071013 38 150 1.0 4.0 0.00 0.00 0.00 59 1014.1
20211128070517 38 176 1.0 5.0 0.00 0.00 0.00 59 1014.2
20211128070019 38 192 1.0 5.0 0.00 0.00 0.00 59 1014.1
20211128065526 39 171 2.0 5.0 0.00 0.00 0.00 59 1014.2
20211128065014 39 145 2.0 5.0 0.00 0.00 0.00 59 1014.2
20211128064546 38 159 1.0 5.0 0.00 0.00 0.00 59 1014.2
20211128064012 38 183 1.0 4.0 0.00 0.00 0.00 59 1014.3
20211128063512 38 124 1.0 4.0 0.00 0.00 0.00 60 1014.2
20211128063044 38 190 1.0 5.0 0.00 0.00 0.00 60 1014.2
20211128062512 38 155 2.0 5.0 0.00 0.00 0.00 60 1014.4
20211128062028 38 166 1.0 4.0 0.00 0.00 0.00 60 1014.4
20211128061514 38 161 1.0 2.0 0.00 0.00 0.00 60 1014.4
20211128061027 38 170 0.0 2.0 0.00 0.00 0.00 60 1014.4
20211128060512 38 0 0.0 3.0 0.00 0.00 0.00 60 1014.4
20211128060027 38 177 0.0 3.0 0.00 0.00 0.00 60 1014.3
20211128055515 38 0 0.0 3.0 0.00 0.00 0.00 60 1014.6
20211128055010 38 167 1.0 3.0 0.00 0.00 0.00 60 1014.5
20211128054520 38 0 0.0 2.0 0.00 0.00 0.00 59 1014.7
20211128054013 38 207 0.0 3.0 0.00 0.00 0.00 59 1014.7
20211128053512 38 196 0.0 3.0 0.00 0.00 0.00 59 1014.8
20211128053019 38 188 0.0 4.0 0.00 0.00 0.00 59 1014.9
20211128052512 39 0 0.0 4.0 0.00 0.00 0.00 59 1014.7
20211128052014 39 187 1.0 4.0 0.00 0.00 0.00 58 1014.8
20211128051514 39 185 2.0 4.0 0.00 0.00 0.00 58 1014.9
20211128051016 39 194 1.0 4.0 0.00 0.00 0.00 58 1014.9
20211128050513 39 0 0.0 5.0 0.00 0.00 0.00 59 1015.0
20211128050014 39 186 1.0 5.0 0.00 0.00 0.00 58 1014.9
20211128045512 39 0 1.0 4.0 0.00 0.00 0.00 58 1015.0
20211128045015 39 184 0.0 5.0 0.00 0.00 0.00 58 1015.1
20211128044535 39 169 1.0 5.0 0.00 0.00 0.00 59 1015.2
20211128044017 39 0 0.0 3.0 0.00 0.00 0.00 59 1015.2
20211128043519 39 0 1.0 3.0 0.00 0.00 0.00 59 1015.2
20211128043019 39 0 0.0 3.0 0.00 0.00 0.00 59 1015.2
20211128042510 39 190 0.0 3.0 0.00 0.00 0.00 59 1015.5
20211128042012 38 0 0.0 3.0 0.00 0.00 0.00 59 1015.6
20211128041515 38 0 0.0 2.0 0.00 0.00 0.00 59 1015.6
20211128041012 39 0 0.0 3.0 0.00 0.00 0.00 59 1015.6
20211128040513 39 188 0.0 3.0 0.00 0.00 0.00 59 1015.6
20211128040024 39 190 0.0 2.0 0.00 0.00 0.00 58 1015.6
20211128035512 39 191 0.0 4.0 0.00 0.00 0.00 58 1015.8
20211128035013 39 0 1.0 4.0 0.00 0.00 0.00 58 1015.8
20211128034513 39 0 0.0 4.0 0.00 0.00 0.00 58 1015.8
20211128034029 39 178 0.0 3.0 0.00 0.00 0.00 58 1015.9
20211128033513 39 0 0.0 6.0 0.00 0.00 0.00 58 1015.9
20211128033022 39 0 0.0 6.0 0.00 0.00 0.00 58 1015.9
20211128032517 39 0 0.0 4.0 0.00 0.00 0.00 58 1015.9
20211128032016 39 0 0.0 4.0 0.00 0.00 0.00 57 1015.9
20211128031537 39 182 1.0 4.0 0.00 0.00 0.00 57 1016.0
20211128031028 39 174 0.0 4.0 0.00 0.00 0.00 57 1016.1
20211128030512 39 178 1.0 4.0 0.00 0.00 0.00 56 1016.2
20211128030012 39 180 1.0 3.0 0.00 0.00 0.00 56 1016.3
20211128025511 40 207 1.0 3.0 0.00 0.00 0.00 55 1016.3
20211128025014 40 177 0.0 3.0 0.00 0.00 0.00 54 1016.3
20211128024530 40 196 0.0 5.0 0.00 0.00 0.00 54 1016.3
20211128024014 40 0 1.0 5.0 0.00 0.00 0.00 53 1016.3
20211128023512 40 0 1.0 5.0 0.00 0.00 0.00 53 1016.2
20211128023014 40 179 1.0 5.0 0.00 0.00 0.00 53 1016.4
20211128022529 40 171 0.0 3.0 0.00 0.00 0.00 53 1016.4
20211128022012 41 0 0.0 3.0 0.00 0.00 0.00 53 1016.5
20211128021548 41 170 0.0 3.0 0.00 0.00 0.00 52 1016.4
20211128021012 41 0 0.0 3.0 0.00 0.00 0.00 52 1016.4
20211128020509 41 196 0.0 4.0 0.00 0.00 0.00 52 1016.4
20211128020025 41 158 1.0 4.0 0.00 0.00 0.00 51 1016.5
20211128015513 41 164 2.0 4.0 0.00 0.00 0.00 52 1016.3
20211128015014 41 182 1.0 4.0 0.00 0.00 0.00 52 1016.4
20211128014513 41 167 1.0 4.0 0.00 0.00 0.00 52 1016.5
20211128014028 41 202 1.0 4.0 0.00 0.00 0.00 52 1016.7
20211128013514 41 160 2.0 5.0 0.00 0.00 0.00 51 1016.7
20211128013022 41 182 1.0 5.0 0.00 0.00 0.00 52 1016.7
20211128012513 41 196 0.0 3.0 0.00 0.00 0.00 53 1016.8
20211128012035 41 0 1.0 3.0 0.00 0.00 0.00 52 1016.9
20211128011520 41 0 0.0 3.0 0.00 0.00 0.00 52 1016.7
20211128011015 41 188 0.0 3.0 0.00 0.00 0.00 51 1016.6
20211128010520 41 0 0.0 2.0 0.00 0.00 0.00 51 1016.7
20211128010022 42 0 0.0 2.0 0.00 0.00 0.00 51 1016.8
20211128005512 42 0 0.0 3.0 0.00 0.00 0.00 50 1016.5
20211128005033 42 0 1.0 3.0 0.00 0.00 0.00 48 1016.5
20211128004529 42 191 1.0 3.0 0.00 0.00 0.00 48 1016.7
20211128004019 42 165 0.0 3.0 0.00 0.00 0.00 48 1016.6
20211128003513 42 0 0.0 2.0 0.00 0.00 0.00 48 1016.7
20211128003014 42 0 0.0 2.0 0.00 0.00 0.00 48 1016.5
20211128002512 43 184 0.0 2.0 0.00 0.00 0.00 48 1016.4
20211128002015 43 177 0.0 3.0 0.00 0.00 0.00 48 1016.4
20211128001515 43 175 0.0 3.0 0.00 0.00 0.00 47 1016.2
20211128001013 43 160 0.0 3.0 0.00 0.00 0.00 47 1016.2
20211128000535 43 154 1.0 3.0 0.00 0.00 0.00 46 1016.1
20211128000050 43 0 0.0 3.0 0.00 0.00 0.00 47 1016.2
20211127235514 43 146 0.0 2.0 0.00 0.00 0.00 46 1016.1
20211127235012 43 122 0.0 2.0 0.00 0.00 0.00 46 1016.1
20211127234518 43 0 0.0 2.0 0.00 0.00 0.00 46 1016.2
20211127234016 43 0 0.0 2.0 0.00 0.00 0.00 46 1016.3
20211127233517 43 0 0.0 2.0 0.00 0.00 0.00 47 1016.3
20211127233014 43 0 0.0 2.0 0.00 0.00 0.00 47 1016.2
20211127232517 42 157 0.0 2.0 0.00 0.00 0.00 48 1016.4
20211127232015 43 0 0.0 0.0 0.00 0.00 0.00 49 1016.4
20211127231531 43 0 0.0 1.0 0.00 0.00 0.00 49 1016.6
20211127231016 43 0 0.0 1.0 0.00 0.00 0.00 48 1016.4
20211127230513 43 0 0.0 1.0 0.00 0.00 0.00 45 1016.5
20211127230014 43 0 0.0 0.0 0.00 0.00 0.00 45 1016.5
20211127225528 44 0 0.0 0.0 0.00 0.00 0.00 44 1016.5
20211127225009 44 0 0.0 0.0 0.00 0.00 0.00 43 1016.6
20211127224521 44 0 0.0 0.0 0.00 0.00 0.00 44 1016.6
20211127224013 44 0 0.0 0.0 0.00 0.00 0.00 44 1016.5
20211127223512 44 0 0.0 0.0 0.00 0.00 0.00 44 1016.6
20211127223052 45 0 0.0 0.0 0.00 0.00 0.00 42 1016.5
20211127222515 45 0 0.0 0.0 0.00 0.00 0.00 42 1016.7
20211127222015 45 0 0.0 0.0 0.00 0.00 0.00 42 1016.5
20211127221548 46 0 0.0 0.0 0.00 0.00 0.00 42 1016.6
20211127221012 46 0 0.0 0.0 0.00 0.00 0.00 41 1016.6
20211127220512 46 0 0.0 0.0 0.00 0.00 0.00 41 1016.5
20211127220015 47 0 0.0 0.0 0.00 0.00 0.00 41 1016.5
20211127215518 47 0 0.0 0.0 0.00 0.00 0.00 41 1016.7
20211127215015 48 0 0.0 1.0 0.00 0.00 0.00 40 1016.4
20211127214515 48 0 0.0 1.0 0.00 0.00 0.00 39 1016.5
20211127214013 48 0 0.0 0.0 0.00 0.00 0.00 41 1016.6
20211127213516 49 0 0.0 0.0 0.00 0.00 0.00 38 1016.6
20211127213028 49 0 0.0 1.0 0.00 0.00 0.00 39 1016.5
20211127212530 50 0 0.0 2.0 0.00 0.00 0.00 39 1016.6
20211127212013 50 189 0.0 2.0 0.00 0.00 0.00 37 1016.6
20211127211549 50 0 0.0 2.0 0.00 0.00 0.00 33 1016.6
20211127211013 51 0 0.0 4.0 0.00 0.00 0.00 32 1016.5
20211127210543 51 0 0.0 4.0 0.00 0.00 0.00 32 1016.5
20211127210023 51 168 1.0 4.0 0.00 0.00 0.00 32 1016.6
20211127205513 51 0 0.0 4.0 0.00 0.00 0.00 30 1016.3
20211127205012 51 360 2.0 4.0 0.00 0.00 0.00 30 1016.3
20211127204531 51 309 1.0 4.0 0.00 0.00 0.00 30 1016.4
20211127204014 51 0 0.0 4.0 0.00 0.00 0.00 30 1016.5
20211127203512 51 0 1.0 4.0 0.00 0.00 0.00 31 1016.5
20211127203013 51 157 0.0 7.0 0.00 0.00 0.00 30 1016.5
20211127202512 51 205 1.0 7.0 0.00 0.00 0.00 32 1016.6
20211127202013 51 290 2.0 7.0 0.00 0.00 0.00 30 1016.5
20211127201522 51 165 0.0 4.0 0.00 0.00 0.00 31 1016.5
20211127201010 50 156 1.0 4.0 0.00 0.00 0.00 30 1016.4
20211127200510 50 0 0.0 3.0 0.00 0.00 0.00 29 1016.4
20211127200033 50 144 1.0 3.0 0.00 0.00 0.00 29 1016.5
20211127195510 50 179 0.0 4.0 0.00 0.00 0.00 30 1016.5
20211127195010 50 169 2.0 4.0 0.00 0.00 0.00 30 1016.5
20211127194537 50 182 1.0 5.0 0.00 0.00 0.00 29 1016.5
20211127194013 51 355 1.0 5.0 0.00 0.00 0.00 29 1016.4
20211127193515 50 0 0.0 4.0 0.00 0.00 0.00 29 1016.4
20211127193019 51 336 1.0 4.0 0.00 0.00 0.00 30 1016.5
20211127192525 50 315 1.0 4.0 0.00 0.00 0.00 30 1016.4
20211127192026 50 0 0.0 8.0 0.00 0.00 0.00 30 1016.5
20211127191511 50 298 3.0 8.0 0.00 0.00 0.00 29 1016.4
20211127191015 50 331 2.0 9.0 0.00 0.00 0.00 30 1016.4
20211127190510 50 271 2.0 9.0 0.00 0.00 0.00 30 1016.5
20211127190010 50 319 2.0 6.0 0.00 0.00 0.00 28 1016.6
20211127185516 50 309 0.0 5.0 0.00 0.00 0.00 30 1016.7
20211127185010 50 188 0.0 8.0 0.00 0.00 0.00 30 1016.7
20211127184514 50 240 3.0 9.0 0.00 0.00 0.00 29 1016.7
20211127184009 50 325 2.0 9.0 0.00 0.00 0.00 28 1016.7
20211127183511 49 298 1.0 6.0 0.00 0.00 0.00 29 1016.9
20211127183035 49 309 0.0 5.0 0.00 0.00 0.00 28 1017.0
20211127182516 50 308 2.0 5.0 0.00 0.00 0.00 28 1017.0
20211127182013 49 329 1.0 9.0 0.00 0.00 0.00 30 1017.2
20211127181519 49 273 2.0 9.0 0.00 0.00 0.00 26 1017.2
20211127181010 48 311 2.0 5.0 0.00 0.00 0.00 28 1017.2
20211127180513 49 314 2.0 5.0 0.00 0.00 0.00 28 1017.4
20211127180027 48 246 1.0 6.0 0.00 0.00 0.00 31 1017.4
20211127175510 48 198 1.0 9.0 0.00 0.00 0.00 32 1017.5
20211127175010 48 302 1.0 9.0 0.00 0.00 0.00 32 1017.6
20211127174535 48 324 2.0 7.0 0.00 0.00 0.00 33 1017.7
20211127174014 47 168 1.0 5.0 0.00 0.00 0.00 34 1017.8
20211127173509 47 339 2.0 9.0 0.00 0.00 0.00 33 1018.0
20211127173023 47 331 3.0 9.0 0.00 0.00 0.00 34 1018.0
20211127172510 48 5 3.0 8.0 0.00 0.00 0.00 34 1018.1
20211127172010 47 209 3.0 8.0 0.00 0.00 0.00 35 1018.1
20211127171510 47 290 1.0 7.0 0.00 0.00 0.00 35 1018.3
20211127171015 47 234 1.0 4.0 0.00 0.00 0.00 35 1018.6
20211127170513 47 335 0.0 8.0 0.00 0.00 0.00 37 1018.8
20211127170018 47 232 3.0 8.0 0.00 0.00 0.00 35 1018.7
20211127165512 46 323 0.0 12.0 0.00 0.00 0.00 37 1018.8
20211127165013 46 309 5.0 12.0 0.00 0.00 0.00 34 1018.8
20211127164515 47 0 1.0 9.0 0.00 0.00 0.00 35 1019.0
20211127164010 46 328 2.0 9.0 0.00 0.00 0.00 35 1019.2
20211127163515 46 331 1.0 7.0 0.00 0.00 0.00 36 1019.2
20211127163028 45 157 1.0 6.0 0.00 0.00 0.00 36 1019.3
20211127162513 45 351 1.0 10.0 0.00 0.00 0.00 38 1019.4
20211127162010 45 331 4.0 10.0 0.00 0.00 0.00 37 1019.6
20211127161511 45 303 3.0 9.0 0.00 0.00 0.00 37 1019.5
20211127161010 44 318 4.0 9.0 0.00 0.00 0.00 38 1019.7
20211127160510 44 347 2.0 10.0 0.00 0.00 0.00 37 1019.8
20211127160034 43 289 4.0 12.0 0.00 0.00 0.00 38 1019.9
20211127155509 44 299 3.0 12.0 0.00 0.00 0.00 40 1019.9
20211127155011 42 21 2.0 11.0 0.00 0.00 0.00 41 1020.1
20211127154543 42 355 5.0 11.0 0.00 0.00 0.00 40 1020.1
20211127154009 43 327 3.0 9.0 0.00 0.00 0.00 40 1020.1
20211127153518 42 21 3.0 9.0 0.00 0.00 0.00 41 1020.2
20211127153020 42 336 1.0 10.0 0.00 0.00 0.00 43 1020.1
20211127152513 41 5 5.0 10.0 0.00 0.00 0.00 42 1020.0
20211127152011 41 5 3.0 9.0 0.00 0.00 0.00 41 1020.1
20211127151554 41 59 1.0 9.0 0.00 0.00 0.00 45 1020.0
20211127151011 40 343 3.0 10.0 0.00 0.00 0.00 45 1020.2
20211127150511 40 339 5.0 10.0 0.00 0.00 0.00 44 1020.2
20211127150024 40 324 4.0 10.0 0.00 0.00 0.00 45 1020.2
20211127145509 41 0 1.0 7.0 0.00 0.00 0.00 46 1020.2
20211127145010 40 321 2.0 9.0 0.00 0.00 0.00 46 1020.2
20211127144529 39 327 4.0 11.0 0.00 0.00 0.00 46 1020.1
20211127144012 40 296 4.0 11.0 0.00 0.00 0.00 46 1020.1
20211127143514 39 338 3.0 13.0 0.00 0.00 0.00 47 1020.1
20211127143015 38 347 4.0 13.0 0.00 0.00 0.00 48 1020.2
20211127142510 38 309 3.0 12.0 0.00 0.00 0.00 49 1020.2
20211127142020 38 325 4.0 13.0 0.00 0.00 0.00 49 1020.1
20211127141517 38 360 4.0 14.0 0.00 0.00 0.00 50 1020.0
20211127141012 37 321 7.0 14.0 0.00 0.00 0.00 50 1020.1
20211127140513 37 306 3.0 11.0 0.00 0.00 0.00 52 1020.1
20211127140107 37 338 3.0 11.0 0.00 0.00 0.00 52 1020.0
20211127135529 37 10 4.0 11.0 0.00 0.00 0.00 52 1019.9
20211127135012 36 299 4.0 11.0 0.00 0.00 0.00 53 1020.0
20211127134517 36 336 5.0 12.0 0.00 0.00 0.00 54 1019.9
20211127134015 35 350 4.0 12.0 0.00 0.00 0.00 55 1019.5
20211127133512 35 325 3.0 6.0 0.00 0.00 0.00 57 1019.5
20211127133023 35 251 2.0 5.0 0.00 0.00 0.00 57 1019.5
20211127132515 35 0 2.0 9.0 0.00 0.00 0.00 57 1019.8
20211127132011 34 319 3.0 9.0 0.00 0.00 0.00 57 1019.7
20211127131512 34 332 3.0 9.0 0.00 0.00 0.00 58 1019.9
20211127131011 34 288 2.0 8.0 0.00 0.00 0.00 59 1019.7
20211127130511 33 0 1.0 5.0 0.00 0.00 0.00 59 1019.5
20211127130016 33 343 2.0 8.0 0.00 0.00 0.00 59 1019.3
20211127125510 33 327 3.0 8.0 0.00 0.00 0.00 60 1019.3
20211127125021 33 337 2.0 8.0 0.00 0.00 0.00 61 1019.2
20211127124519 32 312 1.0 6.0 0.00 0.00 0.00 61 1019.1
20211127124030 32 0 0.0 3.0 0.00 0.00 0.00 62 1019.1
20211127123513 32 303 1.0 5.0 0.00 0.00 0.00 62 1019.3
20211127123017 32 311 1.0 5.0 0.00 0.00 0.00 61 1019.3
20211127122513 32 308 2.0 4.0 0.00 0.00 0.00 61 1019.2
20211127122013 32 330 1.0 4.0 0.00 0.00 0.00 62 1019.2
20211127121529 32 0 0.0 4.0 0.00 0.00 0.00 62 1019.0
20211127121016 32 333 1.0 4.0 0.00 0.00 0.00 62 1019.1
20211127120513 32 307 1.0 3.0 0.00 0.00 0.00 62 1018.7
20211127120014 32 306 0.0 3.0 0.00 0.00 0.00 61 1018.6
20211127115512 32 0 0.0 4.0 0.00 0.00 0.00 62 1018.6
20211127115012 32 309 2.0 5.0 0.00 0.00 0.00 61 1018.5
20211127114539 32 319 2.0 5.0 0.00 0.00 0.00 61 1018.5
20211127114016 32 326 2.0 7.0 0.00 0.00 0.00 61 1018.4
20211127113517 32 346 3.0 7.0 0.00 0.00 0.00 61 1018.4
20211127113055 32 338 4.0 8.0 0.00 0.00 0.00 61 1018.4
20211127112512 32 342 3.0 8.0 0.00 0.00 0.00 61 1018.3
20211127112013 32 331 2.0 10.0 0.00 0.00 0.00 61 1018.2
20211127111512 32 340 3.0 10.0 0.00 0.00 0.00 61 1018.2
20211127111015 32 340 3.0 6.0 0.00 0.00 0.00 61 1018.1
20211127110513 32 360 2.0 8.0 0.00 0.00 0.00 61 1018.1
20211127110033 32 333 3.0 10.0 0.00 0.00 0.00 61 1018.0
20211127105513 32 309 4.0 10.0 0.00 0.00 0.00 61 1017.8
20211127105013 32 5 4.0 9.0 0.00 0.00 0.00 62 1017.8
20211127104532 32 355 3.0 7.0 0.00 0.00 0.00 62 1017.9
20211127104010 32 338 3.0 7.0 0.00 0.00 0.00 63 1017.8
20211127103509 32 331 2.0 9.0 0.00 0.00 0.00 63 1017.9
20211127103012 32 342 3.0 9.0 0.00 0.00 0.00 63 1017.8
20211127102513 32 342 4.0 8.0 0.00 0.00 0.00 64 1017.7
20211127102012 32 344 3.0 9.0 0.00 0.00 0.00 65 1017.6
20211127101513 32 9 3.0 9.0 0.00 0.00 0.00 66 1017.6
20211127101017 32 321 4.0 9.0 0.00 0.00 0.00 66 1017.4
20211127100525 32 328 3.0 9.0 0.00 0.00 0.00 66 1017.5
20211127100014 32 320 3.0 7.0 0.00 0.00 0.00 67 1017.7
20211127095512 31 302 2.0 7.0 0.00 0.04 0.00 67 1017.7